Weather History for McComb, MS

Change the Weather History Date:

Thursday, March 6, 2014

  Actual Average Record
Temperature  
Mean Temperature 44 °F -  
Max Temperature 48 °F 66 °F 82 °F (1956)
Min Temperature 41 °F 41 °F 24 °F (1960)
Degree Days  
Heating Degree Days 20    
Moisture  
Dew Point 43 °F    
Average Humidity 94    
Maximum Humidity 97    
Minimum Humidity 90    
Precipitation  
Precipitation 0.17 in - - ()
Sea Level Pressure  
Sea Level Pressure 30.01 in    
Wind  
Wind Speed 8 mph (NNW)    
Max Wind Speed 14 mph    
Max Gust Speed -    
Visibility 5 miles    
Events Rain    
Averages and records for this station are not official NWS values.
T = Trace of Precipitation, MM = Missing Value Source: NWS Daily Summary

Daily Weather History Graph

Daily Weather History Graph

Search for Another Location

Airport:

Trip Planner

Search our weather history database for the weather conditions in past years. The results will help you decide how hot, cold, wet, or windy it might be!

Date:

Astronomy

Mar. 06, 2014 Rise Set
Actual Time 6:22 AM CST 6:03 PM CST
Civil Twilight 5:58 AM CST 6:28 PM CST
Nautical Twilight 5:30 AM CST 6:56 PM CST
Astronomical Twilight 5:02 AM CST 7:24 PM CST
Moon 9:52 AM CST (3/6) 11:46 PM CST (3/6)
Length of Visible Light 12h 29m
Length of Day
11h 41m
Waxing Crescent, 32% of the Moon is Illuminated
Mar 6
Waxing Crescent
Mar 8
First Quarter
Mar 16
Full
Mar 23
Last Quarter
Mar 30
New

Hourly Weather History & Observations

Time (CST) Temp. Windchill Dew Point Humidity Pressure Visibility Wind Dir Wind Speed Gust Speed Precip Events Conditions
12:53 AM 48.0 °F - 46.0 °F 93% 29.99 in 6.0 mi Calm Calm - N/A   Overcast
1:53 AM 48.9 °F - 46.9 °F 93% 29.98 in 6.0 mi NNE 3.5 mph - N/A   Overcast
2:53 AM 48.9 °F - 46.9 °F 93% 29.96 in 7.0 mi North 5.8 mph - N/A   Overcast
3:53 AM 48.0 °F - 46.0 °F 93% 29.98 in 3.0 mi NNW 6.9 mph - 0.04 in Rain Rain
4:03 AM 48.0 °F - 46.0 °F 93% 29.98 in 4.0 mi NW 8.1 mph - 0.01 in Rain Light Rain
4:12 AM 46.9 °F - 46.0 °F 97% 29.98 in 5.0 mi NNW 9.2 mph - 0.01 in Rain Light Rain
4:40 AM 46.9 °F - 46.0 °F 97% 29.98 in 4.0 mi NNW 9.2 mph - 0.04 in Rain Light Rain
4:53 AM 46.9 °F - 45.0 °F 93% 29.98 in 5.0 mi NNW 9.2 mph - 0.05 in Rain Light Rain
5:07 AM 46.9 °F - 45.0 °F 93% 29.98 in 4.0 mi NNW 9.2 mph - 0.01 in Rain Rain
5:53 AM 46.9 °F - 45.0 °F 93% 29.99 in 10.0 mi North 10.4 mph - 0.02 in   Overcast
6:53 AM 46.0 °F 41.4 °F 45.0 °F 96% 30.00 in 7.0 mi North 9.2 mph - N/A   Overcast
7:15 AM 46.0 °F 42.5 °F 45.0 °F 96% 30.00 in 4.0 mi North 6.9 mph - N/A   Overcast
7:53 AM 46.0 °F 42.5 °F 44.1 °F 93% 30.01 in 3.0 mi North 6.9 mph - N/A   Overcast
8:00 AM 46.0 °F 41.9 °F 44.1 °F 93% 30.01 in 2.0 mi North 8.1 mph - N/A   Overcast
8:21 AM 46.0 °F 41.4 °F 44.1 °F 93% 30.01 in 1.5 mi North 9.2 mph - N/A   Overcast
8:39 AM 46.0 °F 41.9 °F 44.1 °F 93% 30.02 in 2.0 mi North 8.1 mph - 0.01 in   Overcast
8:53 AM 46.0 °F 41.4 °F 45.0 °F 96% 30.01 in 2.5 mi North 9.2 mph - 0.01 in   Overcast
9:03 AM 46.9 °F - 44.1 °F 90% 30.02 in 4.0 mi North 8.1 mph - N/A   Overcast
9:53 AM 46.9 °F - 45.0 °F 93% 30.01 in 6.0 mi North 9.2 mph - N/A   Overcast
10:53 AM 46.0 °F 40.6 °F 44.1 °F 93% 30.01 in 9.0 mi NNW 11.5 mph - 0.00 in   Overcast
11:53 AM 46.0 °F 39.9 °F 44.1 °F 93% 30.00 in 4.0 mi NW 13.8 mph - 0.02 in Rain Light Rain
12:48 PM 44.6 °F 39.2 °F 42.8 °F 93% 30.00 in 6.0 mi NW 10.4 mph - 0.01 in   Overcast
12:53 PM 45.0 °F 39.3 °F 43.0 °F 93% 29.99 in 6.0 mi NNW 11.5 mph - 0.01 in   Overcast
1:26 PM 44.1 °F 38.1 °F 42.1 °F 93% 29.99 in 10.0 mi NNW 11.5 mph - N/A   Overcast
1:53 PM 44.1 °F 38.1 °F 42.1 °F 93% 29.99 in 6.0 mi NNW 11.5 mph - 0.00 in Rain Light Rain
2:53 PM 42.1 °F 35.2 °F 39.9 °F 92% 30.00 in 9.0 mi NW 12.7 mph - 0.01 in Rain Light Rain
3:30 PM 42.1 °F 35.2 °F 39.9 °F 92% 30.00 in 8.0 mi NNW 12.7 mph - 0.01 in Rain Light Rain
3:46 PM 42.1 °F 35.2 °F 39.9 °F 92% 30.00 in 6.0 mi NNW 12.7 mph - 0.01 in   Overcast
3:53 PM 42.1 °F 34.9 °F 39.9 °F 92% 30.00 in 8.0 mi North 13.8 mph - 0.01 in   Overcast
4:53 PM 42.1 °F 36.6 °F 39.9 °F 92% 30.01 in 10.0 mi NNW 9.2 mph - N/A   Overcast
5:28 PM 41.0 °F 33.9 °F 39.9 °F 96% 30.01 in 6.0 mi NNW 12.7 mph - N/A   Overcast
5:53 PM 41.0 °F 35.8 °F 39.9 °F 96% 30.01 in 7.0 mi NNW 8.1 mph - N/A   Overcast
6:53 PM 41.0 °F 34.3 °F 39.9 °F 96% 30.01 in 8.0 mi North 11.5 mph - N/A   Overcast
7:53 PM 41.0 °F 33.9 °F 39.9 °F 96% 30.03 in 5.0 mi NNW 12.7 mph - N/A   Overcast
8:53 PM 41.0 °F 34.7 °F 39.0 °F 93% 30.05 in 5.0 mi NNW 10.4 mph - N/A   Overcast
9:53 PM 41.0 °F 35.2 °F 39.0 °F 93% 30.06 in 5.0 mi NNW 9.2 mph - N/A   Overcast
10:20 PM 41.0 °F 34.7 °F 39.0 °F 93% 30.05 in 2.5 mi NNW 10.4 mph - N/A   Overcast
10:53 PM 41.0 °F 34.7 °F 39.9 °F 96% 30.04 in 2.5 mi NNW 10.4 mph - N/A   Overcast
11:04 PM 41.0 °F 34.7 °F 39.0 °F 93% 30.04 in 3.0 mi North 10.4 mph - N/A   Overcast
11:53 PM 41.0 °F 36.4 °F 39.9 °F 96% 30.04 in 4.0 mi NNW 6.9 mph - N/A   Overcast